Flag for Burundi Weather past 2 weeks in Gitega, Burundi

Now
68 °F

Passing clouds.


Feels Like: 68 °F
Forecast: 56 / 77 °F
Wind: No wind

Location: Kigali Airport

Current Time: Mar 6, 2015 at 1:20:41 AM

Latest Report: Mar 6, 2015 at 1:00 AM


Visibility: N/A

Pressure: 30.12 "Hg

Humidity: 83%

Dew point: 63 °F

Location of GitegaLocation

Historic Weather in Gitega — Graph

°F

Gitega temperature yesterday

Maximum temperature yesterday: 86 °F (at 3:30 PM)
Minimum temperature yesterday: 61 °F (at 2:30 AM)
Average temperature yesterday: 73 °F

Past Weeks' High & Low Weather Summary

 TemperatureHumidityPressure
High86 °F (Feb 22, 12:30 PM)100% (Feb 20, 4:00 AM)30.74 "Hg (Feb 20, 4:00 AM)
Low59 °F (Feb 21, 4:00 AM)40% (Mar 5, 3:30 PM)29.95 "Hg (Feb 19, 4:00 PM)
Average70 °F82%30.08 "Hg
* Reported Midnight between Feb 18 and Feb 19 — Midnight between Mar 5 and Mar 6, Gitega, Weather by CustomWeather, © 2015

Note: Actual official high and low records may vary slightly from our data, if they occured in-between our weather recording intervals... More about our weather records

Advertising

Gitega weather history for previous 24 hours

 ConditionsComfort  
Time TempWeatherWind HumidityBarometerVisibility
12:00 AM
Fri, Mar 6
68 °FPassing clouds.No wind83%30.12 "HgN/A
11:30 PM
Thu, Mar 5
70 °FPassing clouds.No wind78%30.12 "HgN/A
11:00 PM72 °FPassing clouds.No wind69%30.15 "HgN/A
10:30 PM72 °FPassing clouds.3 mph69%30.12 "HgN/A
10:00 PM72 °FPassing clouds.3 mph69%30.12 "HgN/A
9:00 PM75 °FPassing clouds.No wind57%30.09 "HgN/A
8:30 PM75 °FPassing clouds.3 mph57%30.09 "HgN/A
8:00 PM75 °FPassing clouds.No wind57%30.07 "HgN/A
7:30 PM77 °FPassing clouds.9 mph54%30.07 "HgN/A
7:00 PM77 °FPassing clouds.9 mph54%30.07 "HgN/A
6:30 PM79 °FPassing clouds.9 mph58%30.04 "HgN/A
6:00 PM81 °FScattered clouds.9 mph48%30.04 "HgN/A
5:30 PM82 °FScattered clouds.8 mph45%30.01 "HgN/A
5:00 PM84 °FScattered clouds.8 mph43%30.01 "HgN/A
4:30 PM84 °FPartly sunny.9 mph40%30.01 "HgN/A
3:30 PM86 °FPartly sunny.6 mph40%30.01 "HgN/A
3:00 PM84 °FPartly sunny.9 mph45%30.01 "HgN/A
2:30 PM82 °FPartly sunny.9 mph51%30.04 "HgN/A
2:00 PM82 °FPartly sunny.9 mph51%30.04 "HgN/A
1:30 PM82 °FScattered clouds.2 mph51%30.07 "HgN/A
1:00 PM82 °FScattered clouds.5 mph51%30.09 "HgN/A
12:30 PM82 °FScattered clouds.5 mph51%30.12 "HgN/A
12:00 PM81 °FScattered clouds.5 mph58%30.12 "HgN/A
11:30 AM79 °FScattered clouds.5 mph61%30.12 "HgN/A
11:00 AM77 °FPassing clouds.3 mph61%30.15 "HgN/A
10:30 AM75 °FPassing clouds.6 mph65%30.15 "Hg5 mi
10:00 AM73 °FPassing clouds.3 mph69%30.15 "Hg5 mi
9:30 AM73 °FScattered clouds.No wind69%30.15 "Hg5 mi
9:00 AM72 °FScattered clouds.No wind73%30.15 "Hg4 mi
8:30 AM68 °FScattered clouds.No wind88%30.15 "Hg4 mi
8:00 AM66 °FScattered clouds.No wind94%30.15 "Hg4 mi
7:30 AM63 °FScattered clouds.3 mph100%30.12 "Hg5 mi
7:00 AM61 °FScattered clouds.No wind100%30.12 "Hg4 mi
6:30 AM61 °FPassing clouds.No wind100%30.09 "Hg4 mi
5:30 AM61 °FPassing clouds.No wind100%30.09 "Hg4 mi
5:00 AM61 °FPassing clouds.No wind100%30.07 "Hg5 mi
4:00 AM61 °FPassing clouds.5 mph100%30.07 "HgN/A
3:30 AM61 °FPassing clouds.No wind100%30.07 "HgN/A
3:00 AM61 °FPassing clouds.No wind100%30.07 "HgN/A
2:30 AM61 °FPassing clouds.No wind100%30.07 "HgN/A
2:00 AM63 °FPassing clouds.No wind100%30.07 "HgN/A
Weather by CustomWeather, © 2015

See weather overviewHow to use our weather pages